SL-16 DEB, 22645

Orbit data source: Space-Track

SL-16 DEB, 22645 is space debris in LEO originally from a launch on Fri, 26 Mar 1993 UTC launched from the Tyuratam Missile And Space Complex (TTMTR). Debris objects in space refer to the collection of defunct objects orbiting the Earth. Examples of debris include non-operational satellites, rocket bodies, and fragments generated from explosions, collisions, or faulty payload assembly.

Loading next visibility...
Identifier
22645, 1993-016AF
Orbit
LEO
Last TLE update
1 day ago
Origin
Manufacturer
Unknown
Mission
Spacecraft
Bus & Motor
Unknown
Mass
Unknown
Launch date (UTC)
1993-03-26 (32 years ago)
Launch vehicle
Unknown
Launch site
Tyuratam Missile And Space Complex (TTMTR)
Object type
Payload
Rocket body
Debris
Shape & HBR
Unknown
Radar Cross Section
Small (<0.1 m²)

Expand to show TLE details & history

TLE from 1 day ago
0 SL-16 DEB
1 22645U 93016AF  25128.25155090  .00000661  00000-0  54697-3 0  9990
2 22645  70.9852  77.6536 0170759 207.0166 152.1978 13.86029869616218
Epoch: 2025-05-08T06:02Z
Definitive object data (Epoch: 2025-05-08T06:02:13.997Z)
Latitude
-0.00003°
Longitude
120.77054°
Altitude
1,055.99 km
Speed
7.268 km/s
True Right ascension
05h 10m 36s
True Declination
0° 00' 00"
Sunlit
Object was in daylight at TLE epoch
Visualization TLE readout
Latitude
8.75655°
Longitude
121.77015°
Altitude
1,064.1 km
Speed
7.261 km/s
Apparent Right ascension
04h 09m 02s
Apparent Declination
-14° 22' 04"
Sunlit
Object is in daylight
Visualization observer readout
Local Sidereal Time
14:28:44
Azimuth
312.233° NW
Elevation
-56.326°
Doppler factor
1
Orbital elements
Apogee altitude
1,065.504 km
Perigee altitude
815.558 km
Semi-major axis
7,318.668 km
Eccentricity
0.0170759
Inclination
70.9852°
RAAN
77.6536°
Arg. of periapsis
207.0166°
True anomaly
153.09351°
Mean anomaly
152.1978°
Eccentric anomaly
152.64733°
Mean motion
3.46653 °/min
BSTAR
0.00054697
Orbital period
103.85 mins
Loading maneuver chart data...
Loading SW <> Apogee altitude chart data...
Loading historical data...
Loading historical data...
Loading historical data...
Loading historical data...
Loading historical data...
Loading historical data...
Loading historical data...

SL-16 DEB Visibility forecast

Observer location: undefined°, undefined°

Span
Click to sort rows by Start time (UTC) header in descending order
Start Az.
Max El. time (UTC)
Max El. Az.
Max El.
End time (UTC)
End Az.
10 mins2025-05-09 06:50:55.580Z352.159° N2025-05-09 06:55:55.580Z50.24° ENE31.33°2025-05-09 07:00:55.580Z122.584° SE
8 mins2025-05-09 08:38:55.580Z306.53° NW2025-05-09 08:41:55.580Z266.085° W27.043°2025-05-09 08:46:55.580Z199.55° SSW
7 mins2025-05-09 20:16:55.580Z127.919° SE2025-05-09 20:19:55.580Z97.529° ESE17.703°2025-05-09 20:23:55.580Z59.289° ENE
12 mins2025-05-09 21:59:55.580Z210.014° SW2025-05-09 22:05:55.580Z325.845° NNW43.608°2025-05-09 22:11:55.580Z19.673° NNE
5 mins2025-05-09 23:50:55.580Z294.205° NW2025-05-09 23:52:55.580Z313.832° NW14.764°2025-05-09 23:55:55.580Z342.497° N
|